When you browse on this site, cookies collect data to enhance your experience and personalize the content and advertising you see.
Visit our Privacy Policy to learn more. By continuing to use the site, you agree to this use of cookies and data.
  • Em Portugal
  • Lista de países
  • Para 7 dias
  • Temperatura da água
  • Mapa do tempo
  • Widgets de tempo
  • user-avatar
    Iniciar Sessão

    Previsão horária em Zykovo

    Hoje, 31 Maio, Domingo

    Tempo Temperatura Precipitação Vento Pressão Humidade
    00:00 +17°C° 0.3 mm 3 m/s 744 mmHg 95%
    01:00 +17°C° 0 mm 3 m/s 744 mmHg 95%
    02:00 +15°C° 0 mm 4 m/s 744 mmHg 95%
    03:00 +14°C° 0 mm 4 m/s 744 mmHg 96%
    04:00 +14°C° 0.1 mm 4 m/s 744 mmHg 94%
    05:00 +14°C° 0.1 mm 4 m/s 743 mmHg 93%
    06:00 +14°C° 0.1 mm 5 m/s 743 mmHg 92%
    07:00 +16°C° 0 mm 5 m/s 743 mmHg 87%
    08:00 +17°C° 0 mm 5 m/s 743 mmHg 83%
    09:00 +19°C° 0 mm 4 m/s 743 mmHg 78%
    10:00 +19°C° 0.4 mm 5 m/s 742 mmHg 76%
    11:00 +20°C° 0.4 mm 6 m/s 742 mmHg 74%
    12:00 +20°C° 0.4 mm 6 m/s 742 mmHg 72%
    13:00 +20°C° 0.7 mm 6 m/s 742 mmHg 73%
    14:00 +20°C° 0.7 mm 6 m/s 742 mmHg 73%
    15:00 +20°C° 0 mm 6 m/s 742 mmHg 73%
    16:00 +19°C° 0.6 mm 6 m/s 742 mmHg 76%
    17:00 +19°C° 0.6 mm 5 m/s 741 mmHg 79%
    18:00 +17°C° 0.6 mm 5 m/s 741 mmHg 82%
    19:00 +16°C° 0.4 mm 5 m/s 741 mmHg 85%
    20:00 +15°C° 0.4 mm 4 m/s 742 mmHg 88%
    21:00 +13°C° 0.4 mm 4 m/s 742 mmHg 91%
    22:00 +13°C° 0 mm 4 m/s 742 mmHg 92%
    23:00 +12°C° 0 mm 4 m/s 742 mmHg 93%

    Amanhã, 1 Junho, Segunda-feira

    Tempo Temperatura Precipitação Vento Pressão Humidade
    00:00 +12°C° 0 mm 5 m/s 742 mmHg 94%
    01:00 +12°C° 0 mm 4 m/s 742 mmHg 94%
    02:00 +11°C° 0 mm 4 m/s 742 mmHg 95%
    03:00 +11°C° 0 mm 4 m/s 743 mmHg 96%
    04:00 +11°C° 0 mm 4 m/s 743 mmHg 95%
    05:00 +12°C° 0 mm 4 m/s 743 mmHg 94%
    06:00 +12°C° 0 mm 4 m/s 743 mmHg 93%
    07:00 +13°C° 0 mm 4 m/s 743 mmHg 91%
    08:00 +13°C° 0 mm 4 m/s 744 mmHg 88%
    09:00 +14°C° 0 mm 4 m/s 744 mmHg 86%
    10:00 +15°C° 0.1 mm 4 m/s 744 mmHg 82%
    11:00 +17°C° 0.1 mm 3 m/s 745 mmHg 78%
    12:00 +19°C° 0.1 mm 3 m/s 745 mmHg 73%
    13:00 +19°C° 0.8 mm 3 m/s 745 mmHg 73%
    14:00 +19°C° 0.8 mm 3 m/s 746 mmHg 72%
    15:00 +19°C° 0.8 mm 3 m/s 746 mmHg 71%
    16:00 +19°C° 1.2 mm 2 m/s 746 mmHg 75%
    17:00 +18°C° 1.2 mm 2 m/s 746 mmHg 79%
    18:00 +18°C° 1.2 mm 2 m/s 746 mmHg 82%
    19:00 +17°C° 0.3 mm 2 m/s 746 mmHg 86%
    20:00 +14°C° 0.3 mm 3 m/s 747 mmHg 89%
    21:00 +13°C° 0.3 mm 3 m/s 747 mmHg 92%
    22:00 +13°C° 0 mm 3 m/s 747 mmHg 93%
    23:00 +12°C° 0 mm 3 m/s 747 mmHg 95%

    Depois de amanhã, 2 Junho, Terça-feira

    Tempo Temperatura Precipitação Vento Pressão Humidade
    00:00 +12°C° 0 mm 3 m/s 747 mmHg 96%
    01:00 +11°C° 0 mm 3 m/s 747 mmHg 96%
    02:00 +11°C° 0 mm 3 m/s 747 mmHg 96%
    03:00 +11°C° 0 mm 3 m/s 747 mmHg 96%
    04:00 +11°C° 0 mm 4 m/s 747 mmHg 96%
    05:00 +12°C° 0 mm 4 m/s 747 mmHg 96%
    06:00 +12°C° 0 mm 4 m/s 747 mmHg 96%
    07:00 +13°C° 0.1 mm 4 m/s 747 mmHg 95%
    08:00 +13°C° 0.1 mm 4 m/s 747 mmHg 93%
    09:00 +14°C° 0.1 mm 3 m/s 747 mmHg 92%
    10:00 +14°C° 0.7 mm 3 m/s 747 mmHg 93%
    11:00 +14°C° 0.7 mm 3 m/s 747 mmHg 93%
    12:00 +16°C° 0.7 mm 3 m/s 747 mmHg 93%
    13:00 +16°C° 0.9 mm 3 m/s 747 mmHg 93%
    14:00 +16°C° 0.9 mm 3 m/s 747 mmHg 93%
    15:00 +16°C° 0.9 mm 3 m/s 747 mmHg 93%
    16:00 +16°C° 0.1 mm 3 m/s 747 mmHg 92%
    17:00 +16°C° 0.1 mm 3 m/s 747 mmHg 91%
    18:00 +15°C° 0.1 mm 4 m/s 746 mmHg 90%
    19:00 +15°C° 0 mm 4 m/s 747 mmHg 92%
    20:00 +14°C° 0 mm 4 m/s 747 mmHg 94%
    21:00 +13°C° 0 mm 4 m/s 747 mmHg 97%
    22:00 +13°C° 0.2 mm 4 m/s 747 mmHg 97%
    23:00 +13°C° 0.2 mm 4 m/s 747 mmHg 97%

    3 Junho, Quarta-feira

    Tempo Temperatura Precipitação Vento Pressão Humidade
    00:00 +13°C° 0.2 mm 4 m/s 746 mmHg 97%
    01:00 +13°C° 0.3 mm 4 m/s 747 mmHg 97%
    02:00 +13°C° 0.3 mm 3 m/s 747 mmHg 97%
    03:00 +13°C° 0.3 mm 3 m/s 747 mmHg 97%
    04:00 +13°C° 0 mm 3 m/s 747 mmHg 96%
    05:00 +13°C° 0 mm 4 m/s 747 mmHg 96%
    06:00 +13°C° 0 mm 4 m/s 746 mmHg 95%
    07:00 +14°C° 0 mm 4 m/s 746 mmHg 94%
    08:00 +14°C° 0 mm 5 m/s 747 mmHg 93%
    09:00 +15°C° 0 mm 5 m/s 747 mmHg 92%
    10:00 +16°C° 0 mm 5 m/s 747 mmHg 90%
    11:00 +16°C° 0 mm 5 m/s 747 mmHg 88%
    12:00 +17°C° 0 mm 6 m/s 747 mmHg 86%
    13:00 +19°C° 0 mm 6 m/s 746 mmHg 84%
    14:00 +20°C° 0 mm 6 m/s 746 mmHg 83%
    15:00 +20°C° 0 mm 6 m/s 746 mmHg 81%
    16:00 +19°C° 0.9 mm 6 m/s 746 mmHg 84%
    17:00 +19°C° 0.9 mm 5 m/s 746 mmHg 87%
    18:00 +17°C° 0.9 mm 5 m/s 746 mmHg 90%
    19:00 +16°C° 0.8 mm 5 m/s 746 mmHg 91%
    20:00 +16°C° 0.8 mm 6 m/s 746 mmHg 92%
    21:00 +15°C° 0.8 mm 7 m/s 746 mmHg 93%
    22:00 +15°C° 1.4 mm 6 m/s 746 mmHg 94%
    23:00 +14°C° 1.4 mm 5 m/s 745 mmHg 94%

    4 Junho, Quinta-feira

    Tempo Temperatura Precipitação Vento Pressão Humidade
    00:00 +14°C° 1.4 mm 4 m/s 745 mmHg 95%
    01:00 +14°C° 6.1 mm 5 m/s 745 mmHg 95%
    02:00 +13°C° 6.1 mm 6 m/s 745 mmHg 95%
    03:00 +12°C° 6.1 mm 7 m/s 745 mmHg 95%
    04:00 +12°C° 3.1 mm 7 m/s 745 mmHg 95%
    05:00 +12°C° 3.1 mm 7 m/s 745 mmHg 95%
    06:00 +12°C° 3.1 mm 7 m/s 745 mmHg 95%
    07:00 +12°C° 3.9 mm 7 m/s 745 mmHg 95%
    08:00 +11°C° 3.9 mm 7 m/s 745 mmHg 95%
    09:00 +11°C° 3.9 mm 7 m/s 745 mmHg 96%
    10:00 +11°C° 1.8 mm 7 m/s 745 mmHg 95%
    11:00 +12°C° 1.8 mm 7 m/s 745 mmHg 95%
    12:00 +13°C° 1.8 mm 6 m/s 745 mmHg 95%
    13:00 +13°C° 1.9 mm 6 m/s 745 mmHg 95%
    14:00 +14°C° 1.9 mm 6 m/s 745 mmHg 96%
    15:00 +14°C° 1.9 mm 5 m/s 745 mmHg 96%
    16:00 +15°C° 0.4 mm 5 m/s 745 mmHg 95%
    17:00 +15°C° 0.4 mm 5 m/s 745 mmHg 94%
    18:00 +16°C° 0.4 mm 6 m/s 745 mmHg 93%
    19:00 +15°C° 0 mm 5 m/s 745 mmHg 93%
    20:00 +15°C° 0 mm 4 m/s 745 mmHg 94%
    21:00 +16°C° 0 mm 3 m/s 745 mmHg 95%
    22:00 +16°C° 0 mm 2 m/s 745 mmHg 95%
    23:00 +15°C° 0 mm 2 m/s 745 mmHg 96%

    5 Junho, Sexta-feira

    Tempo Temperatura Precipitação Vento Pressão Humidade
    00:00 +15°C° 0 mm 1 m/s 745 mmHg 96%
    01:00 +15°C° 0 mm 1 m/s 745 mmHg 96%
    02:00 +15°C° 0 mm 1 m/s 745 mmHg 96%
    03:00 +15°C° 0 mm 1 m/s 745 mmHg 95%
    04:00 +15°C° 0 mm 1 m/s 745 mmHg 95%
    05:00 +16°C° 0 mm 1 m/s 745 mmHg 95%
    06:00 +16°C° 0 mm 1 m/s 745 mmHg 94%
    07:00 +18°C° 0 mm 1 m/s 745 mmHg 92%
    08:00 +19°C° 0 mm 1 m/s 745 mmHg 90%
    09:00 +20°C° 0 mm 1 m/s 745 mmHg 87%
    10:00 +19°C° 0.5 mm 2 m/s 745 mmHg 85%
    11:00 +20°C° 0.5 mm 2 m/s 746 mmHg 84%
    12:00 +21°C° 0.5 mm 3 m/s 746 mmHg 82%
    13:00 +21°C° 0.7 mm 3 m/s 746 mmHg 81%
    14:00 +21°C° 0.7 mm 4 m/s 745 mmHg 79%
    15:00 +21°C° 0.7 mm 4 m/s 745 mmHg 78%
    16:00 +21°C° 0.4 mm 4 m/s 746 mmHg 80%
    17:00 +20°C° 0.4 mm 3 m/s 746 mmHg 81%
    18:00 +20°C° 0.4 mm 3 m/s 746 mmHg 83%
    19:00 +18°C° 0.1 mm 3 m/s 746 mmHg 85%
    20:00 +17°C° 0.1 mm 2 m/s 746 mmHg 86%
    21:00 +15°C° 0.1 mm 2 m/s 746 mmHg 88%
    22:00 +15°C° 0 mm 2 m/s 747 mmHg 89%
    23:00 +14°C° 0 mm 2 m/s 747 mmHg 90%
    Mostrar mais